Fountain Dale, PA

8:58 AM EDT on May 26, 2018 (GMT -0400)
Fountain Dale

Weather History for KRYT - March, 2013

Change the Weather History Date:

Friday, March 8, 2013

  Actual Average (KHGR) Record (KHGR)
Temperature  
Mean Temperature 40 °F -  
Max Temperature 45 °F 44 °F 78 °F (2016)
Min Temperature 34 °F 27 °F 8 °F (2007)
Degree Days  
Heating Degree Days 26    
Moisture  
Dew Point 23 °F    
Average Humidity 54    
Maximum Humidity 73    
Minimum Humidity 45    
Precipitation  
Precipitation 0.00 in - - ()
Sea Level Pressure  
Sea Level Pressure 30.21 in    
Wind  
Wind Speed 8 mph (NNW)    
Max Wind Speed 14 mph    
Max Gust Speed 28 mph    
Visibility 10 miles    
Events Snow    
Averages and records for this station are not official NWS values.
T = Trace of Precipitation, MM = Missing Value Source: NWS Daily Summary

Daily Weather History Graph

Daily Weather History Graph

Search for Another Location

Airport or City:

Astronomy

Mar. 08, 2013 Rise Set
Actual Time 6:31 AM EST 6:09 PM EST
Civil Twilight 6:04 AM EST 6:36 PM EST
Nautical Twilight 5:33 AM EST 7:07 PM EST
Astronomical Twilight 5:02 AM EST 7:39 PM EST
Moon 4:14 AM EST (3/8) 3:02 PM EST (3/8)
Length of Visible Light 12h 31m
Length of Day
11h 37m
Waning Crescent, 12% of the Moon is Illuminated
Mar 8
Waning Crescent
Mar 11
New
Mar 19
First Quarter
Mar 27
Full
Apr 3
Last Quarter

Hourly Weather History & Observations

Time (EST) Temp. Windchill Dew Point Humidity Pressure Visibility Wind Dir Wind Speed Gust Speed Precip Events Conditions
12:53 AM 36.0 °F 28.5 °F 24.1 °F 62% 30.16 in 10.0 mi NW 10.4 mph 17.3 mph N/A   Clear
1:53 AM 36.0 °F 33.3 °F 24.1 °F 62% 30.16 in 10.0 mi Variable 3.5 mph - N/A   Mostly Cloudy
2:53 AM 36.0 °F 29.0 °F 24.1 °F 62% 30.15 in 10.0 mi NNW 9.2 mph - N/A   Partly Cloudy
3:53 AM 36.0 °F 32.1 °F 25.0 °F 64% 30.15 in 9.0 mi Variable 4.6 mph - 0.00 in Snow Light Snow
4:53 AM 36.0 °F 29.6 °F 23.0 °F 59% 30.15 in 10.0 mi NNW 8.1 mph - 0.00 in   Overcast
5:53 AM 34.0 °F 28.0 °F 26.1 °F 73% 30.17 in 2.5 mi Variable 6.9 mph - 0.00 in Snow Light Snow
6:53 AM 34.0 °F 28.0 °F 25.0 °F 70% 30.18 in 10.0 mi Variable 6.9 mph - 0.00 in   Overcast
7:53 AM 34.0 °F 28.0 °F 25.0 °F 70% 30.20 in 6.0 mi North 6.9 mph - 0.00 in   Haze
8:53 AM 36.0 °F 27.5 °F 19.9 °F 52% 30.20 in 10.0 mi NNW 12.7 mph 25.3 mph N/A   Partly Cloudy
9:53 AM 37.0 °F 28.9 °F 19.9 °F 50% 30.22 in 10.0 mi North 12.7 mph 24.2 mph N/A   Partly Cloudy
10:53 AM 39.0 °F 32.8 °F 21.0 °F 49% 30.21 in 10.0 mi North 9.2 mph 25.3 mph N/A   Clear
11:53 AM 39.9 °F 32.1 °F 21.0 °F 47% 30.21 in 10.0 mi North 13.8 mph 27.6 mph N/A   Clear
12:53 PM 42.1 °F 36.6 °F 23.0 °F 47% 30.18 in 10.0 mi North 9.2 mph 25.3 mph N/A   Clear
1:53 PM 43.0 °F 36.0 °F 24.1 °F 47% 30.17 in 10.0 mi NNW 13.8 mph 21.9 mph N/A   Clear
2:53 PM 45.0 °F 39.7 °F 25.0 °F 46% 30.18 in 10.0 mi NW 10.4 mph 20.7 mph N/A   Mostly Cloudy
3:53 PM 45.0 °F 39.3 °F 25.0 °F 46% 30.20 in 10.0 mi North 11.5 mph 19.6 mph N/A   Overcast
4:53 PM 45.0 °F 39.7 °F 25.0 °F 46% 30.22 in 10.0 mi North 10.4 mph 18.4 mph N/A   Overcast
5:53 PM 44.1 °F 39.0 °F 25.0 °F 47% 30.25 in 10.0 mi North 9.2 mph - N/A   Partly Cloudy
6:53 PM 44.1 °F 40.1 °F 24.1 °F 45% 30.26 in 10.0 mi Variable 6.9 mph - N/A   Mostly Cloudy
7:53 PM 43.0 °F 39.5 °F 24.1 °F 47% 30.29 in 10.0 mi North 5.8 mph - N/A   Clear
8:53 PM 41.0 °F - 23.0 °F 49% 30.29 in 10.0 mi Calm Calm - N/A   Clear
9:53 PM 42.1 °F 40.2 °F 21.9 °F 45% 30.29 in 10.0 mi Variable 3.5 mph - N/A   Partly Cloudy
11:53 PM 39.0 °F - 21.0 °F 49% 30.28 in 10.0 mi Calm Calm - N/A   Clear